Wind_Speed
61 60 56 55 51 48 44 44 42 41 37 33 35 33 36 35 32 15 17 14 11 12 16 19 14 20 24 24 23 26 27 29 32 33 37 46 46 51 55 55 55 55 57 57 56 52 51 53 53
61 58 56 53 48 45 44 44 42 43 37 35 34 34 34 35 28 19 12 12 11 11 17 18 16 17 25 28 31 32 34 34 35 34 34 38 44 46 49 54 56 56 57 57 57 56 53 54 54
62 59 56 52 49 45 45 45 42 41 36 33 34 35 34 33 23 14 15 16 16 15 17 20 21 24 25 28 31 30 31 36 38 40 37 40 40 42 46 49 55 53 56 54 54 55 55 56 55
65 61 57 56 49 44 44 46 42 38 33 33 36 35 32 29 16 13 13 13 18 23 27 25 28 27 29 29 31 31 34 35 39 39 40 42 44 45 47 46 50 53 55 55 54 54 56 55 56
69 62 59 58 49 47 45 42 40 35 31 32 33 31 30 21 11 12 14 14 11 10 16 19 24 27 25 26 28 29 31 33 34 34 33 41 45 47 48 48 50 53 55 57 56 54 49 56 57
71 65 61 57 52 44 43 39 37 33 31 30 30 27 27 16 9 7 10 11 11 17 16 17 20 23 21 20 23 24 26 26 25 25 26 32 40 47 50 49 50 52 51 53 55 54 51 47 50
72 65 63 58 51 44 43 40 37 34 30 30 28 25 22 13 8 10 13 15 15 19 18 20 21 21 19 17 15 14 13 12 12 12 19 26 30 33 39 46 50 54 54 54 54 53 53 52 48
74 66 67 56 48 46 44 39 37 34 30 30 27 22 18 10 8 10 14 15 19 18 16 18 19 18 16 14 13 12 13 13 15 10 10 16 22 27 35 36 42 48 51 53 54 53 52 51 51
71 66 64 54 51 47 47 43 37 35 31 28 21 23 19 12 10 10 12 14 17 18 17 18 18 18 17 16 14 15 14 11 12 12 9 9 19 24 27 29 30 33 39 42 46 44 47 41 43
65 65 59 57 58 53 51 44 40 36 32 29 23 21 15 15 14 13 15 17 19 19 19 19 19 20 19 17 17 17 12 9 7 5 3 4 9 18 24 26 28 28 28 30 33 34 34 33 32
64 59 66 59 57 54 53 45 43 36 32 28 23 17 16 17 15 18 17 20 22 21 21 21 21 20 20 19 17 16 13 11 6 8 8 7 7 9 16 23 25 25 24 24 24 25 26 27 28
65 69 66 63 61 58 52 52 46 39 39 29 18 16 15 18 17 16 21 22 21 22 23 22 21 17 17 17 18 18 17 12 11 13 13 13 11 12 12 14 19 21 21 22 21 21 21 21 21
72 70 69 68 64 61 53 56 47 41 37 29 22 22 19 20 16 15 24 24 24 24 23 21 20 17 16 16 17 19 18 15 14 14 13 14 14 15 15 16 17 18 18 19 20 20 21 22 23
74 75 72 71 68 62 61 58 49 44 36 32 27 22 19 23 22 23 23 23 25 25 23 22 21 18 13 16 17 20 21 16 15 15 13 15 16 16 17 18 18 18 19 19 19 20 21 23 25
76 76 73 72 69 67 62 55 48 40 37 32 28 20 17 20 24 23 25 27 26 27 25 22 19 17 14 12 17 22 22 20 17 16 16 17 17 19 20 21 21 22 22 22 23 23 24 25 26
78 77 76 72 69 66 61 52 44 42 38 34 28 22 20 22 18 24 29 30 28 27 25 22 20 18 15 13 19 22 22 22 19 18 17 19 19 20 21 21 21 21 21 21 22 23 24 25 26
85 75 75 72 70 68 62 54 47 43 38 35 29 26 23 23 20 26 28 30 29 27 24 21 20 20 18 15 19 23 20 22 21 20 18 19 19 19 20 20 21 21 22 23 24 25 26 26 26
75 76 73 68 66 65 64 57 52 48 42 38 31 28 25 24 25 28 30 33 32 28 24 22 20 20 19 17 19 25 23 20 23 22 21 20 20 19 19 18 18 19 21 22 23 24 24 24 24
86 82 76 71 72 73 65 56 57 52 45 38 34 31 28 26 22 23 32 33 32 29 26 23 21 20 20 19 20 23 24 22 21 24 24 23 22 19 19 19 20 21 23 25 25 25 25 25 25
85 81 75 73 70 74 67 62 60 52 49 44 40 36 31 26 23 32 36 35 33 30 29 27 24 22 22 20 19 20 23 22 21 22 25 25 23 21 21 21 21 22 23 24 25 26 26 27 27
82 77 78 74 76 80 74 65 61 55 51 45 40 39 33 29 32 36 38 38 34 33 33 31 28 25 23 22 21 21 22 23 21 22 24 25 28 28 25 24 24 25 25 27 28 28 29 30 30
87 77 79 78 78 79 71 66 61 59 54 47 42 41 37 32 34 35 36 36 35 36 35 33 31 28 26 25 23 24 25 24 23 23 25 26 28 29 29 29 27 27 29 29 30 30 32 33 33
90 80 80 80 80 86 79 73 65 63 52 46 43 43 41 40 39 42 40 42 41 37 37 35 31 30 29 25 24 26 26 25 26 26 27 28 29 29 30 31 31 30 30 31 32 33 34 36 38
95 89 85 86 84 81 72 64 65 58 51 50 49 48 45 46 46 45 45 43 40 39 40 37 34 33 31 28 26 25 26 28 27 27 28 29 31 31 31 32 34 34 34 35 34 34 35 37 38
100 99 92 93 82 72 72 66 62 59 57 56 54 52 50 49 50 49 50 46 45 45 44 39 36 34 32 31 30 28 26 27 25 26 29 30 30 31 32 33 33 34 34 35 35 35 34 36 37
89 91 84 82 74 72 75 64 58 57 58 57 56 57 54 51 51 51 51 49 48 49 46 42 39 36 36 35 32 29 28 26 26 26 26 25 26 27 31 32 31 30 29 30 32 34 34 34 35
96 94 87 93 86 82 74 70 68 63 62 62 59 56 54 52 53 54 53 52 52 52 49 46 43 42 39 38 34 31 31 31 28 27 27 27 26 26 27 27 28 29 31 33 34 35 36 38 42
94 89 92 95 85 74 74 69 68 69 67 67 64 61 59 59 57 55 53 53 52 54 53 50 48 45 42 38 36 36 34 32 31 30 30 30 30 31 30 30 32 34 36 37 40 39 43 46 47
95 92 91 91 88 76 75 73 73 74 72 71 71 71 71 68 63 60 59 58 57 55 56 56 52 49 45 44 42 41 39 37 36 36 35 36 36 37 37 38 39 39 40 43 45 48 48 49 51
101 94 90 88 86 78 74 74 76 78 75 73 75 73 70 68 68 65 64 62 60 59 60 60 56 54 52 49 47 46 44 44 44 43 43 43 43 44 44 44 44 45 45 47 51 54 54 55 57
Wind_Direction
248 249 248 251 255 260 260 265 271 278 286 287 287 292 296 309 303 246 218 198 181 200 203 184 176 183 196 199 198 198 209 217 217 215 221 222 225 225 226 230 232 230 231 234 235 239 245 245 243
244 247 247 248 252 255 259 264 273 273 284 281 286 294 300 309 295 255 218 229 217 206 202 209 209 204 208 206 203 211 209 217 219 222 227 225 225 226 228 230 232 232 232 234 239 240 242 246 248
240 243 246 246 247 253 258 261 269 271 275 278 280 297 303 309 281 255 238 234 238 249 244 232 239 238 218 220 221 223 220 224 225 223 227 227 224 223 226 230 231 235 235 238 242 244 246 247 249
239 240 240 243 246 253 256 261 263 269 267 274 279 292 300 305 275 253 256 234 218 243 251 236 239 239 238 234 229 230 230 238 239 236 231 232 229 225 225 227 230 233 236 239 241 245 246 247 251
238 239 240 242 246 251 254 257 262 266 268 271 277 292 305 296 262 233 236 239 231 213 214 221 225 230 231 228 231 234 237 243 245 246 241 236 233 230 230 229 231 231 233 236 239 242 247 251 252
235 237 238 241 241 242 251 255 257 250 265 267 280 292 302 280 254 204 219 202 212 210 214 214 217 228 230 229 231 234 236 239 241 238 234 235 236 234 233 231 230 231 233 235 236 239 241 245 250
231 232 234 236 239 244 240 250 253 244 261 264 276 289 299 265 241 201 226 209 215 217 228 220 225 225 223 226 223 227 237 245 255 244 219 220 222 221 227 229 227 228 230 233 236 238 240 242 246
225 227 235 236 239 241 238 249 242 239 251 258 271 291 285 256 222 201 217 223 226 228 215 216 216 217 228 220 225 233 247 262 286 276 248 225 217 218 218 218 220 222 226 226 229 233 239 242 245
222 221 231 232 235 230 233 243 233 232 244 254 271 279 284 233 200 199 204 207 205 199 203 211 213 221 224 223 224 230 244 263 268 285 276 230 212 212 214 213 215 217 220 221 226 230 236 237 241
212 221 224 221 222 225 229 233 223 225 238 248 264 274 271 233 192 190 187 195 201 201 206 217 220 220 220 219 221 212 222 234 254 266 223 217 198 202 207 204 208 210 212 214 224 223 231 232 234
209 210 215 216 225 226 226 225 218 220 233 245 258 270 259 225 193 184 190 201 203 206 210 215 221 231 229 226 221 213 207 201 178 127 115 122 129 163 188 197 200 201 205 208 213 217 220 224 227
199 206 209 210 213 216 220 218 212 215 230 247 254 254 236 228 199 190 194 206 215 211 210 217 227 233 233 225 218 205 189 173 157 127 120 112 116 123 139 165 182 193 201 203 205 208 206 205 200
193 207 205 207 210 211 215 212 206 213 225 237 237 244 241 213 198 199 198 209 210 214 214 220 226 231 235 231 220 200 182 169 153 136 128 127 126 131 131 135 146 160 172 181 185 182 179 177 175
199 206 203 204 204 210 214 210 212 215 224 231 237 250 261 219 197 196 210 213 211 215 221 219 226 231 231 221 215 198 185 173 165 152 143 136 129 128 130 132 138 145 150 156 160 162 162 160 160
200 204 201 200 204 208 210 206 207 210 219 227 234 238 257 235 198 199 205 208 215 214 214 217 215 217 217 214 204 197 194 185 174 168 156 143 140 134 131 128 127 129 132 137 142 147 153 160 167
199 204 199 202 205 208 203 198 203 213 214 221 223 224 240 226 208 199 201 206 211 212 209 205 210 212 209 202 200 197 197 194 189 182 175 163 158 152 149 147 147 147 149 154 158 162 168 173 179
199 201 201 204 207 207 203 198 203 212 216 219 216 222 229 227 201 205 208 205 210 201 198 196 204 206 207 201 198 197 198 198 199 192 187 177 169 168 165 163 162 164 166 168 173 177 181 186 193
199 201 202 203 206 207 199 203 211 215 215 215 212 219 225 218 207 204 202 202 196 190 189 189 193 198 201 199 198 201 204 208 202 199 193 192 187 183 181 179 180 182 183 186 188 192 196 202 208
201 202 197 201 202 203 199 200 211 213 214 216 210 216 218 220 216 201 195 198 192 190 193 190 190 193 196 196 195 200 205 205 207 204 203 202 202 201 199 198 198 200 200 200 202 207 211 216 222
199 200 196 198 205 201 198 197 208 211 210 207 206 214 219 216 208 193 198 199 196 195 194 192 191 192 193 196 195 197 203 208 208 206 208 209 213 216 218 218 216 216 218 220 221 223 227 232 238
197 198 197 199 206 202 197 195 208 211 211 212 207 211 214 213 204 201 205 206 203 201 202 198 196 197 194 195 197 201 207 210 210 210 210 213 216 220 224 227 229 229 230 232 236 239 241 244 248
196 195 200 203 206 203 197 196 204 210 208 208 206 212 213 216 208 209 214 210 211 209 207 201 200 200 203 202 203 208 212 216 216 217 219 222 224 226 230 233 240 244 244 246 249 252 254 256 260
198 196 201 206 206 205 197 197 201 205 206 210 210 210 212 213 214 211 212 214 215 214 209 205 204 205 209 206 212 215 219 222 223 224 225 226 227 231 237 241 244 249 252 255 258 262 262 264 269
199 199 204 208 208 206 199 200 203 203 207 208 209 209 212 213 213 219 217 221 220 215 210 207 207 210 212 210 212 216 217 225 226 227 229 231 235 238 241 244 248 251 253 257 262 266 269 272 276
200 200 206 207 203 205 203 205 205 205 208 208 209 210 212 215 217 222 226 219 216 215 216 209 210 209 209 212 214 215 219 221 223 226 229 231 235 239 243 246 250 254 257 261 266 271 275 278 281
204 203 207 206 202 212 210 203 205 209 216 215 212 213 212 213 219 222 224 223 218 218 219 213 215 214 212 215 216 214 219 222 224 227 231 232 234 238 245 249 255 262 267 271 272 276 280 283 287
203 202 205 201 201 210 209 203 212 211 215 216 214 218 218 217 220 221 219 221 218 218 217 218 218 218 216 217 219 218 222 226 227 229 234 240 243 248 252 259 264 265 269 272 274 276 279 285 285
201 203 205 202 201 207 209 205 211 210 212 215 216 217 220 219 220 223 222 221 221 220 220 222 221 221 220 219 222 223 224 228 233 236 239 245 248 251 255 258 262 265 270 274 275 277 281 282 285
203 205 203 203 201 203 209 209 209 212 212 215 216 216 219 219 219 221 223 223 224 223 223 222 222 224 223 223 226 230 230 232 235 239 244 248 253 255 259 260 262 265 269 273 278 279 279 282 285
204 205 206 206 204 202 207 213 214 214 216 217 218 220 221 222 223 223 224 226 227 225 224 224 224 226 228 229 228 232 235 238 239 241 245 248 252 257 260 263 265 268 271 274 277 281 283 284 289
Height
10719 10723 10729 10736 10741 10744 10746 10748 10751 10752 10752 10750 10750 10748 10745 10742 10739 10736 10735 10736 10738 10739 10741 10743 10746 10750 10752 10757 10760 10762 10764 10766 10766 10769 10772 10776 10780 10784 10790 10795 10798 10803 10805 10808 10811 10813 10814 10816 10818
10710 10715 10722 10729 10733 10737 10740 10742 10745 10746 10747 10746 10745 10742 10740 10737 10734 10731 10731 10733 10735 10737 10739 10741 10743 10747 10750 10753 10754 10758 10760 10760 10761 10765 10768 10772 10776 10779 10783 10787 10789 10794 10798 10800 10803 10806 10808 10810 10813
10701 10707 10716 10720 10727 10730 10734 10737 10740 10741 10742 10741 10740 10738 10735 10732 10728 10726 10727 10730 10732 10735 10736 10737 10738 10742 10745 10747 10749 10751 10754 10754 10756 10760 10764 10768 10770 10773 10776 10780 10783 10787 10790 10793 10796 10799 10801 10804 10807
10692 10699 10707 10712 10718 10725 10727 10731 10734 10736 10737 10736 10735 10734 10730 10728 10724 10722 10723 10725 10726 10730 10731 10733 10733 10735 10739 10741 10744 10747 10749 10750 10751 10755 10759 10762 10765 10767 10770 10775 10777 10780 10784 10787 10792 10792 10795 10799 10801
10683 10690 10699 10704 10712 10716 10720 10724 10728 10730 10732 10732 10731 10728 10726 10724 10721 10719 10720 10721 10722 10724 10727 10729 10729 10731 10733 10737 10740 10742 10743 10744 10744 10748 10751 10754 10757 10761 10764 10768 10772 10775 10778 10781 10785 10788 10790 10792 10795
10674 10682 10690 10695 10702 10708 10713 10718 10723 10725 10727 10727 10727 10724 10723 10721 10718 10716 10718 10719 10721 10723 10725 10726 10727 10728 10731 10734 10737 10738 10740 10740 10741 10743 10744 10745 10747 10751 10755 10760 10764 10767 10772 10775 10778 10782 10785 10788 10789
10663 10671 10673 10684 10695 10702 10707 10712 10716 10720 10723 10724 10722 10721 10720 10717 10715 10714 10716 10718 10720 10721 10723 10724 10726 10727 10730 10731 10733 10735 10736 10737 10737 10737 10738 10739 10740 10741 10745 10749 10755 10759 10764 10767 10771 10775 10778 10782 10786
10647 10656 10665 10682 10690 10693 10700 10706 10711 10715 10718 10719 10718 10717 10716 10715 10713 10712 10714 10716 10717 10719 10721 10723 10724 10726 10728 10729 10732 10734 10735 10736 10734 10733 10733 10733 10734 10736 10737 10742 10746 10750 10754 10760 10763 10768 10772 10777 10780
10638 10646 10663 10674 10679 10686 10693 10699 10706 10709 10712 10714 10714 10713 10713 10712 10710 10711 10712 10714 10715 10717 10720 10722 10724 10725 10727 10728 10730 10732 10733 10734 10732 10731 10729 10729 10730 10732 10733 10738 10741 10745 10749 10754 10758 10763 10766 10772 10774
10632 10642 10652 10658 10663 10677 10684 10694 10698 10703 10707 10709 10710 10710 10710 10710 10708 10709 10711 10713 10714 10717 10719 10721 10722 10724 10725 10727 10729 10731 10733 10733 10732 10730 10729 10727 10727 10728 10730 10734 10738 10741 10745 10750 10754 10759 10762 10766 10770
10624 10634 10633 10649 10660 10668 10677 10687 10692 10697 10702 10704 10705 10707 10707 10708 10706 10707 10710 10712 10714 10717 10718 10719 10721 10722 10724 10727 10729 10731 10733 10733 10733 10732 10730 10729 10728 10727 10729 10732 10736 10740 10744 10748 10752 10755 10759 10763 10767
10610 10613 10628 10640 10651 10661 10671 10678 10685 10690 10697 10701 10702 10703 10704 10705 10704 10705 10708 10711 10714 10715 10717 10718 10719 10722 10724 10726 10729 10732 10733 10733 10734 10733 10732 10731 10730 10730 10730 10732 10735 10739 10743 10746 10750 10754 10757 10761 10764
10598 10602 10617 10631 10641 10653 10663 10669 10675 10685 10691 10695 10697 10698 10700 10702 10702 10705 10707 10710 10713 10714 10716 10717 10720 10722 10723 10725 10728 10731 10734 10734 10735 10734 10735 10734 10734 10734 10734 10735 10737 10739 10743 10746 10750 10753 10757 10761 10764
10586 10591 10606 10620 10631 10644 10652 10662 10673 10680 10686 10690 10693 10695 10696 10697 10698 10701 10704 10708 10711 10713 10715 10717 10719 10722 10723 10725 10728 10731 10734 10735 10736 10737 10737 10737 10738 10738 10738 10739 10741 10744 10746 10749 10752 10755 10759 10763 10767
10572 10582 10596 10614 10624 10634 10646 10661 10667 10674 10679 10685 10689 10692 10693 10695 10695 10697 10703 10707 10710 10713 10714 10716 10718 10720 10722 10724 10727 10730 10733 10736 10738 10739 10739 10740 10741 10742 10743 10744 10746 10748 10751 10753 10756 10759 10762 10766 10769
10560 10569 10591 10609 10620 10630 10644 10651 10662 10668 10673 10679 10685 10688 10690 10692 10693 10696 10700 10704 10708 10711 10713 10715 10717 10719 10721 10723 10726 10729 10733 10735 10738 10740 10741 10742 10743 10744 10745 10747 10749 10751 10754 10756 10759 10761 10764 10767 10770
10553 10575 10590 10605 10614 10626 10638 10644 10653 10662 10668 10674 10680 10684 10687 10690 10691 10695 10698 10702 10706 10709 10712 10713 10716 10718 10720 10722 10725 10728 10731 10734 10737 10739 10741 10743 10744 10746 10748 10749 10751 10753 10755 10757 10760 10763 10765 10768 10770
10569 10576 10585 10599 10615 10624 10627 10637 10647 10656 10662 10668 10675 10679 10684 10686 10687 10690 10695 10700 10704 10707 10710 10712 10714 10716 10718 10721 10723 10727 10730 10733 10735 10738 10741 10743 10745 10747 10749 10751 10752 10754 10756 10758 10760 10763 10765 10767 10768
10542 10554 10572 10585 10599 10609 10618 10632 10639 10648 10656 10664 10670 10675 10680 10682 10686 10690 10695 10698 10702 10705 10708 10711 10713 10715 10717 10720 10722 10725 10729 10732 10734 10737 10740 10742 10745 10747 10750 10752 10753 10755 10756 10758 10760 10761 10763 10764 10766
10536 10552 10564 10577 10593 10601 10609 10619 10631 10643 10650 10656 10663 10670 10675 10680 10684 10689 10693 10696 10698 10702 10706 10709 10711 10714 10716 10719 10721 10723 10727 10730 10733 10735 10738 10741 10744 10746 10748 10750 10752 10754 10755 10757 10758 10759 10761 10762 10763
10535 10549 10560 10573 10581 10587 10594 10610 10625 10635 10645 10652 10658 10664 10670 10676 10679 10684 10689 10693 10696 10699 10702 10706 10708 10711 10714 10717 10719 10722 10725 10728 10730 10733 10736 10738 10741 10743 10745 10747 10750 10752 10753 10755 10756 10757 10758 10759 10760
10524 10536 10549 10561 10570 10584 10594 10607 10616 10629 10638 10646 10653 10660 10668 10674 10678 10683 10687 10691 10694 10696 10700 10702 10704 10708 10711 10714 10717 10719 10722 10725 10727 10730 10732 10735 10737 10740 10741 10743 10746 10748 10750 10751 10752 10753 10754 10754 10755
10515 10530 10544 10548 10555 10564 10579 10593 10612 10621 10634 10644 10650 10655 10662 10668 10673 10677 10680 10684 10688 10694 10697 10699 10702 10705 10708 10711 10713 10715 10719 10721 10724 10726 10729 10731 10733 10735 10738 10739 10741 10742 10744 10746 10747 10747 10747 10747 10747
10501 10518 10525 10529 10541 10570 10586 10597 10607 10624 10632 10636 10642 10648 10655 10662 10667 10671 10674 10679 10686 10690 10692 10695 10697 10700 10703 10706 10708 10711 10714 10717 10719 10722 10724 10727 10729 10731 10732 10734 10736 10737 10738 10739 10739 10739 10740 10739 10739
10484 10497 10509 10521 10548 10579 10580 10594 10610 10616 10622 10628 10634 10640 10648 10654 10659 10663 10668 10674 10678 10681 10683 10688 10691 10695 10698 10700 10703 10707 10710 10712 10714 10717 10719 10722 10724 10726 10727 10729 10730 10731 10732 10732 10732 10732 10731 10731 10731
10499 10514 10530 10554 10566 10573 10576 10598 10608 10610 10617 10622 10627 10632 10638 10646 10650 10655 10659 10665 10670 10673 10678 10683 10686 10689 10691 10694 10698 10702 10705 10707 10709 10712 10714 10716 10718 10719 10720 10722 10724 10724 10724 10725 10725 10724 10724 10723 10722
10481 10495 10518 10528 10536 10548 10576 10589 10593 10605 10610 10615 10622 10628 10635 10640 10642 10645 10648 10654 10660 10665 10671 10675 10677 10681 10686 10688 10692 10696 10698 10701 10704 10706 10709 10710 10711 10713 10714 10716 10717 10717 10717 10716 10717 10716 10715 10715 10712
10480 10489 10498 10518 10534 10554 10570 10579 10589 10593 10598 10604 10612 10620 10623 10626 10630 10636 10642 10647 10653 10657 10662 10665 10669 10674 10678 10683 10686 10688 10692 10695 10697 10700 10702 10703 10705 10705 10707 10707 10708 10709 10708 10707 10707 10707 10705 10703 10701
10477 10486 10499 10516 10525 10546 10558 10573 10577 10581 10586 10591 10597 10600 10601 10608 10616 10623 10629 10634 10639 10646 10651 10655 10661 10667 10671 10674 10678 10680 10684 10687 10690 10692 10694 10695 10697 10697 10698 10699 10699 10699 10699 10698 10696 10694 10694 10692 10689
10462 10477 10493 10509 10532 10541 10549 10562 10567 10569 10576 10581 10582 10588 10598 10604 10607 10612 10617 10622 10629 10635 10640 10647 10652 10658 10661 10665 10669 10673 10677 10679 10680 10682 10684 10686 10687 10687 10688 10688 10689 10689 10689 10687 10685 10683 10681 10679 10676